DW4121 Weather Reports


time (UTC)temp
F
wind
direction
speed
knots
gust
knots
rain 1hr
in
rain 24hr
in
rain mn
in
humidity
%
barometer
mb
20260507083604 58 159 4.3 7.0 0.00 0.00 0.00 65 1015.4
20260507083104 58 183 4.3 7.0 0.00 0.00 0.00 68 1015.4
20260507082104 57 189 4.3 6.1 0.00 0.00 0.00 70 1015.4
20260507080604 56 159 4.3 6.1 0.00 0.00 0.00 75 1015.4
20260507074604 54 194 1.7 4.3 0.00 0.00 0.00 79 1015.4
20260507073104 52 208 0.0 2.6 0.00 0.00 0.00 82 1015.4
20260507071104 51 178 0.9 5.2 0.00 0.00 0.00 84 1015.4
20260507070103 51 211 1.7 4.3 0.00 0.00 0.00 84 1015.4
20260507065104 51 215 0.9 2.6 0.00 0.00 0.00 85 1015.3
20260507064105 50 167 1.7 2.6 0.00 0.00 0.00 85 1015.3
20260507063603 50 167 0.9 4.3 0.00 0.00 0.00 86 1015.3
20260507062104 50 116 1.7 2.6 0.00 0.00 0.00 87 1015.2
20260507061605 49 114 0.0 2.6 0.00 0.00 0.00 87 1015.2
20260507060606 49 114 0.0 1.7 0.00 0.00 0.00 87 1015.1
20260507060105 48 114 0.9 2.6 0.00 0.00 0.00 87 1015.0
20260507054605 47 114 0.0 0.0 0.00 0.00 0.00 88 1015.0
20260507051605 46 114 0.0 0.0 0.00 0.00 0.00 87 1014.8
20260507051108 46 114 0.0 0.0 0.00 0.00 0.00 87 1014.8
20260507050105 46 114 0.0 0.9 0.00 0.00 0.00 87 1014.7
20260507044607 46 114 0.0 0.9 0.00 0.00 0.00 87 1014.6
20260507043105 46 114 0.0 1.7 0.00 0.00 0.00 87 1014.6
20260507042604 46 114 0.0 2.6 0.00 0.00 0.00 87 1014.6
20260507042104 46 114 0.9 1.7 0.00 0.00 0.00 87 1014.7
20260507041105 46 114 0.9 1.7 0.00 0.00 0.00 87 1014.7
20260507040605 45 114 0.0 0.0 0.00 0.00 0.00 87 1014.6
20260507035607 45 114 0.0 0.9 0.00 0.00 0.00 87 1014.6
20260507035105 45 114 0.0 1.7 0.00 0.00 0.00 86 1014.6
20260507034105 45 114 0.9 2.6 0.00 0.00 0.00 86 1014.6
20260507033605 45 114 0.9 2.6 0.00 0.00 0.00 86 1014.5
20260507032105 46 114 0.9 2.6 0.00 0.00 0.00 86 1014.6
20260507031105 46 114 1.7 2.6 0.00 0.00 0.00 86 1014.6
20260507030605 46 114 1.7 2.6 0.00 0.00 0.00 86 1014.5
20260507025604 46 114 1.7 2.6 0.00 0.00 0.00 85 1014.6
20260507024605 46 114 1.7 2.6 0.00 0.00 0.00 85 1014.5
20260507021605 47 114 0.0 1.7 0.00 0.00 0.00 84 1014.4
20260507021105 47 114 0.0 0.9 0.00 0.00 0.00 84 1014.4
20260507015604 47 114 0.9 2.6 0.00 0.00 0.00 84 1014.3
20260507014604 48 121 1.7 2.6 0.00 0.00 0.00 84 1014.3
20260507014105 48 106 0.9 2.6 0.00 0.00 0.00 84 1014.3
20260507013105 48 110 0.9 2.6 0.00 0.00 0.00 84 1014.3
20260507012104 48 60 2.6 4.3 0.00 0.00 0.00 84 1014.3
20260507010605 48 83 1.7 4.3 0.00 0.00 0.00 84 1014.3
20260507010104 48 112 1.7 5.2 0.00 0.00 0.00 83 1014.3
20260507005604 48 95 2.6 4.3 0.00 0.00 0.00 83 1014.3
20260507005104 48 86 1.7 4.3 0.00 0.00 0.00 83 1014.3
20260507004606 49 65 2.6 4.3 0.00 0.00 0.00 83 1014.3
20260507004105 49 43 2.6 6.1 0.00 0.00 0.00 83 1014.3
20260507003105 49 58 2.6 7.0 0.00 0.00 0.00 83 1014.3
20260507002604 49 55 1.7 4.3 0.00 0.00 0.00 83 1014.4
20260507001104 49 56 1.7 6.1 0.00 0.00 0.00 82 1014.4
20260507000105 49 55 1.7 5.2 0.00 0.00 0.00 82 1014.5
20260506234605 49 75 1.7 4.3 0.00 0.00 0.00 81 1014.3
20260506234104 49 77 1.7 5.2 0.00 0.00 0.00 80 1014.2
20260506233105 49 69 1.7 4.3 0.00 0.00 0.00 80 1014.2
20260506232105 50 71 0.9 2.6 0.00 0.00 0.00 79 1014.1
20260506231106 50 103 0.9 4.3 0.00 0.00 0.00 78 1014.1
20260506230604 50 109 1.7 2.6 0.00 0.00 0.00 78 1014.1
20260506225104 50 71 1.7 5.2 0.00 0.00 0.00 77 1014.1
20260506224604 51 55 1.7 5.2 0.00 0.00 0.00 77 1014.1
20260506224104 51 107 2.6 5.2 0.00 0.00 0.00 76 1014.1
20260506223606 51 86 2.6 5.2 0.00 0.00 0.00 76 1014.1
20260506222605 51 121 2.6 5.2 0.00 0.00 0.00 75 1014.1
20260506222105 51 57 3.5 7.0 0.00 0.00 0.00 74 1014.0
20260506221104 51 55 2.6 5.2 0.00 0.00 0.00 74 1013.9
20260506220604 51 119 2.6 7.0 0.00 0.00 0.00 74 1014.0
20260506215605 51 66 1.7 4.3 0.00 0.00 0.00 73 1013.9
20260506213605 52 55 2.6 5.2 0.00 0.00 0.00 72 1013.9
20260506213104 52 101 1.7 5.2 0.00 0.00 0.00 72 1013.9
20260506211105 52 117 1.7 5.2 0.00 0.00 0.00 72 1013.8
20260506210604 52 112 3.5 6.1 0.00 0.00 0.00 72 1013.8
20260506203604 53 97 3.5 7.8 0.00 0.00 0.00 70 1013.6
20260506203104 53 53 3.5 7.8 0.00 0.00 0.00 69 1013.6
20260506202604 53 62 3.5 8.7 0.00 0.00 0.00 69 1013.5
20260506201605 53 73 3.5 6.1 0.00 0.00 0.00 67 1013.5
20260506201105 54 117 4.3 7.0 0.00 0.00 0.00 67 1013.4
20260506200605 54 52 5.2 10.4 0.00 0.00 0.00 66 1013.4
20260506200105 54 106 2.6 7.8 0.00 0.00 0.00 66 1013.3
20260506195605 54 72 2.6 6.1 0.00 0.00 0.00 65 1013.3
20260506193605 54 109 5.2 10.4 0.00 0.00 0.00 64 1012.9
20260506192604 54 122 2.6 7.0 0.00 0.00 0.00 63 1012.9
20260506192104 55 126 4.3 10.4 0.00 0.00 0.00 63 1012.9
20260506191105 55 117 4.3 7.0 0.00 0.00 0.00 62 1012.8
20260506190606 55 119 4.3 8.7 0.00 0.00 0.00 62 1012.8
20260506190104 55 98 2.6 6.1 0.00 0.00 0.00 61 1012.8
20260506184105 56 60 4.3 10.4 0.00 0.00 0.00 60 1012.6
20260506181104 57 69 5.2 8.7 0.00 0.00 0.00 55 1012.3
20260506180606 57 58 4.3 7.8 0.00 0.00 0.00 55 1012.2
20260506175604 58 60 5.2 10.4 0.00 0.00 0.00 54 1012.1
20260506175104 58 98 4.3 11.3 0.00 0.00 0.00 53 1012.1
20260506170104 58 113 4.3 8.7 0.00 0.00 0.00 56 1011.9
20260506165104 58 63 6.1 10.4 0.00 0.00 0.00 55 1011.8
20260506164604 58 72 2.6 10.4 0.00 0.00 0.00 56 1011.9
20260506164104 58 113 4.3 10.4 0.00 0.00 0.00 56 1011.9
20260506163104 58 123 4.3 10.4 0.00 0.00 0.00 57 1011.9
20260506162604 58 65 3.5 7.8 0.00 0.00 0.00 57 1011.9
20260506162104 58 65 3.5 7.8 0.00 0.00 0.00 57 1011.9
20260506161604 58 36 5.2 8.7 0.00 0.00 0.00 57 1011.9
20260506161104 58 40 5.2 10.4 0.00 0.00 0.00 57 1011.9
20260506160605 58 119 2.6 8.7 0.00 0.00 0.00 57 1011.9
20260506160104 58 59 4.3 7.8 0.00 0.00 0.00 57 1011.9
20260506155104 57 68 4.3 8.7 0.00 0.00 0.00 57 1012.0
20260506154605 57 103 4.3 10.4 0.00 0.00 0.00 57 1012.0
20260506153604 57 127 4.3 7.0 0.00 0.00 0.00 58 1012.0
20260506153104 57 86 4.3 7.0 0.00 0.00 0.00 58 1012.1
20260506151604 57 76 2.6 7.0 0.00 0.00 0.00 59 1012.1
20260506151103 57 76 4.3 8.7 0.00 0.00 0.00 59 1012.1
20260506145104 56 98 3.5 8.7 0.00 0.00 0.00 60 1012.1
20260506144604 57 55 4.3 12.2 0.00 0.00 0.00 60 1012.0
20260506144104 57 77 4.3 8.7 0.00 0.00 0.00 60 1012.1
20260506143604 57 62 5.2 10.4 0.00 0.00 0.00 59 1012.1
20260506142106 59 95 6.1 13.0 0.00 0.00 0.00 57 1012.0
20260506141603 59 54 4.3 8.7 0.00 0.00 0.00 56 1012.0
20260506141104 60 38 5.2 11.3 0.00 0.00 0.00 55 1012.0
20260506140604 60 122 5.2 12.2 0.00 0.00 0.00 54 1012.0
20260506140104 61 99 2.6 10.4 0.00 0.00 0.00 55 1011.9
20260506135104 60 75 3.5 10.4 0.00 0.00 0.00 56 1012.0
20260506134606 59 51 4.3 10.4 0.00 0.00 0.00 56 1012.1
20260506134103 59 127 7.0 12.2 0.00 0.00 0.00 54 1012.1
20260506133604 59 66 4.3 11.3 0.00 0.00 0.00 54 1012.1
20260506133104 59 83 7.0 13.0 0.00 0.00 0.00 55 1012.1
20260506132104 59 75 6.1 12.2 0.00 0.00 0.00 58 1012.2
20260506130604 57 69 5.2 11.3 0.00 0.00 0.00 59 1012.2
20260506130104 57 109 6.1 13.9 0.00 0.00 0.00 59 1012.2
20260506125104 60 74 6.1 14.8 0.00 0.00 0.00 56 1012.2
20260506124604 60 84 4.3 11.3 0.00 0.00 0.00 57 1012.1
20260506124104 59 90 4.3 10.4 0.00 0.00 0.00 56 1012.0
20260506123604 60 99 5.2 12.2 0.00 0.00 0.00 56 1012.0
20260506123104 60 56 5.2 10.4 0.00 0.00 0.00 55 1012.1
20260506122604 60 71 5.2 13.0 0.00 0.00 0.00 54 1012.1
20260506122104 59 107 4.3 10.4 0.00 0.00 0.00 56 1012.1
20260506121604 59 65 6.1 11.3 0.00 0.00 0.00 56 1012.2
20260506114604 59 60 7.0 13.0 0.00 0.00 0.00 56 1012.1
20260506114104 59 86 6.1 14.8 0.00 0.00 0.00 56 1012.1
20260506113604 59 107 6.1 13.0 0.00 0.00 0.00 56 1012.1
20260506112603 57 56 7.8 14.8 0.00 0.00 0.00 58 1012.2
20260506112104 58 59 6.1 13.0 0.00 0.00 0.00 57 1012.2
20260506111104 59 52 7.8 13.9 0.00 0.00 0.00 54 1012.1
20260506104104 57 50 4.3 14.8 0.00 0.00 0.00 56 1012.3
20260506103604 56 37 5.2 13.0 0.00 0.00 0.00 57 1012.3
20260506102104 56 82 5.2 13.0 0.00 0.00 0.00 59 1012.4
20260506095603 58 70 5.2 12.2 0.00 0.00 0.00 55 1012.3
20260506095104 57 105 7.0 15.6 0.00 0.00 0.00 56 1012.3
20260506094104 57 104 6.1 11.3 0.00 0.00 0.00 56 1012.3
20260506093604 57 82 6.1 13.0 0.00 0.00 0.00 57 1012.4
20260506092604 56 75 5.2 12.2 0.00 0.00 0.00 57 1012.3
20260506092104 56 46 7.8 12.2 0.00 0.00 0.00 57 1012.3
20260506091604 55 69 5.2 10.4 0.00 0.00 0.00 58 1012.2
20260506090604 56 70 7.8 13.0 0.00 0.00 0.00 57 1012.2
20260506090104 56 50 2.6 10.4 0.00 0.00 0.00 60 1012.2
20260506085603 56 48 4.3 10.4 0.00 0.00 0.00 62 1012.2
20260506085104 55 102 5.2 10.4 0.00 0.00 0.00 63 1012.2
20260506084603 54 58 6.1 10.4 0.00 0.00 0.00 65 1012.2